FW1077 Weather Reports


Display with metric or nautical units.
time (UTC)temp
F
wind
direction
speed
MPH
gust
MPH
rain 1hr
in
rain 24hr
in
rain mn
in
humidity
%
barometer
mb
20200711233403 88 301 2.0 8.0 0.00 0.00 0.00 45 1014.6
20200711232902 88 334 2.0 8.0 0.00 0.00 0.00 43 1014.6
20200711232404 88 11 1.0 8.0 0.00 0.00 0.00 42 1014.5
20200711231903 89 346 4.0 8.0 0.00 0.00 0.00 48 1014.5
20200711231402 89 314 1.0 8.0 0.00 0.00 0.00 42 1014.5
20200711230903 88 50 0.0 8.0 0.00 0.00 0.00 45 1014.6
20200711230404 89 329 1.0 10.0 0.00 0.00 0.00 44 1014.7
20200711225903 89 274 2.0 10.0 0.00 0.00 0.00 38 1014.7
20200711225403 90 287 2.0 8.0 0.00 0.00 0.00 41 1014.7
20200711224903 90 249 2.0 10.0 0.00 0.00 0.00 40 1014.8
20200711224403 91 312 4.0 10.0 0.00 0.00 0.00 40 1014.8
20200711223904 91 182 0.0 10.0 0.00 0.00 0.00 37 1014.7
20200711223403 92 240 5.0 8.0 0.00 0.00 0.00 34 1014.7
20200711222903 92 202 4.0 8.0 0.00 0.00 0.00 35 1014.7
20200711222402 92 179 1.0 8.0 0.00 0.00 0.00 33 1014.7
20200711221902 93 254 2.0 10.0 0.00 0.00 0.00 30 1014.7
20200711221402 93 253 4.0 10.0 0.00 0.00 0.00 29 1014.8
20200711220903 94 320 7.0 10.0 0.00 0.00 0.00 27 1014.9
20200711220404 94 264 4.0 10.0 0.00 0.00 0.00 26 1014.8
20200711215903 94 295 5.0 10.0 0.00 0.00 0.00 26 1014.9
20200711215403 93 278 2.0 10.0 0.00 0.00 0.00 25 1014.9
20200711214903 93 304 4.0 8.0 0.00 0.00 0.00 25 1015.0
20200711214402 93 199 4.0 8.0 0.00 0.00 0.00 29 1014.9
20200711213901 93 287 4.0 8.0 0.00 0.00 0.00 28 1014.9
20200711213403 93 255 0.0 10.0 0.00 0.00 0.00 25 1014.8
20200711212904 92 296 4.0 10.0 0.00 0.00 0.00 29 1014.8
20200711212404 92 300 4.0 10.0 0.00 0.00 0.00 28 1014.9
20200711211903 92 278 2.0 10.0 0.00 0.00 0.00 31 1014.9
20200711211402 92 284 3.0 10.0 0.00 0.00 0.00 35 1015.0
20200711210903 92 293 5.0 8.0 0.00 0.00 0.00 35 1014.9
20200711210403 92 288 4.0 10.0 0.00 0.00 0.00 40 1014.9
20200711205902 92 281 0.0 10.0 0.00 0.00 0.00 41 1015.0
20200711205403 92 303 1.0 10.0 0.00 0.00 0.00 39 1015.2
20200711204902 92 289 3.0 10.0 0.00 0.00 0.00 35 1015.1
20200711204402 92 173 3.0 5.0 0.00 0.00 0.00 34 1015.1
20200711203902 92 197 0.0 8.0 0.00 0.00 0.00 35 1015.2
20200711203402 93 208 1.0 8.0 0.00 0.00 0.00 36 1015.2
20200711202903 92 14 1.0 8.0 0.00 0.00 0.00 35 1015.3
20200711202403 92 53 0.0 8.0 0.00 0.00 0.00 30 1015.4
20200711201902 92 313 1.0 8.0 0.00 0.00 0.00 36 1015.4
20200711201403 92 281 5.0 8.0 0.00 0.00 0.00 36 1015.3
20200711200903 92 15 0.0 10.0 0.00 0.00 0.00 35 1015.2
20200711200402 92 273 2.0 10.0 0.00 0.00 0.00 36 1015.2
20200711195902 92 26 2.0 10.0 0.00 0.00 0.00 37 1015.3
20200711195407 92 303 3.0 10.0 0.00 0.00 0.00 37 1015.2
20200711194902 92 301 5.0 10.0 0.00 0.00 0.00 38 1015.1
20200711194404 93 278 6.0 10.0 0.00 0.00 0.00 37 1014.8
20200711193903 93 309 6.0 10.0 0.00 0.00 0.00 37 1015.2
20200711193404 94 291 3.0 10.0 0.00 0.00 0.00 36 1015.3
20200711192902 94 260 2.0 10.0 0.00 0.00 0.00 36 1015.4
20200711192404 94 265 6.0 10.0 0.00 0.00 0.00 36 1015.4
20200711191902 94 284 3.0 10.0 0.00 0.00 0.00 35 1015.5
20200711191407 94 199 1.0 8.0 0.00 0.00 0.00 33 1015.5
20200711190902 94 308 3.0 8.0 0.00 0.00 0.00 34 1015.5
20200711190355 93 42 0.0 8.0 0.00 0.00 0.00 33 1015.5
20200711185851 93 265 0.0 8.0 0.00 0.00 0.00 35 1015.6
20200711185346 93 201 2.0 8.0 0.00 0.00 0.00 35 1015.6
20200711184842 92 9 0.0 10.0 0.00 0.00 0.00 34 1015.6
20200711184331 92 5 0.0 10.0 0.00 0.00 0.00 34 1015.7
20200711183832 91 339 1.0 8.0 0.00 0.00 0.00 36 1015.6
20200711183330 91 338 2.0 5.0 0.00 0.00 0.00 37 1015.6
20200711182825 91 286 3.0 8.0 0.00 0.00 0.00 37 1015.6
20200711182323 90 326 4.0 10.0 0.00 0.00 0.00 38 1015.6
20200711181817 90 6 0.0 13.0 0.00 0.00 0.00 37 1015.4
20200711181314 89 294 3.0 13.0 0.00 0.00 0.00 40 1015.2
20200711180811 89 283 5.0 10.0 0.00 0.00 0.00 39 1015.3
20200711180303 89 37 0.0 8.0 0.00 0.00 0.00 38 1015.4
20200711175802 89 348 2.0 8.0 0.00 0.00 0.00 44 1015.3
20200711175303 89 310 5.0 8.0 0.00 0.00 0.00 44 1015.4
20200711174803 88 332 2.0 8.0 0.00 0.00 0.00 45 1015.5
20200711174302 88 311 3.0 8.0 0.00 0.00 0.00 44 1015.7
20200711173802 88 283 5.0 8.0 0.00 0.00 0.00 44 1015.7
20200711173303 87 348 1.0 5.0 0.00 0.00 0.00 43 1015.9
20200711172801 87 18 0.0 8.0 0.00 0.00 0.00 41 1015.9
20200711172301 87 356 1.0 8.0 0.00 0.00 0.00 43 1015.8
20200711171803 87 320 1.0 8.0 0.00 0.00 0.00 45 1015.7
20200711171302 86 353 1.0 8.0 0.00 0.00 0.00 46 1015.7
20200711170810 86 315 2.0 8.0 0.00 0.00 0.00 49 1015.9
20200711170303 86 282 5.0 8.0 0.00 0.00 0.00 47 1016.1
20200711165802 85 258 0.0 5.0 0.00 0.00 0.00 48 1016.1
20200711165301 85 287 0.0 5.0 0.00 0.00 0.00 48 1016.1
20200711164802 84 204 0.0 5.0 0.00 0.00 0.00 53 1015.9
20200711164300 83 322 1.0 5.0 0.00 0.00 0.00 51 1016.1
20200711163802 83 30 0.0 2.0 0.00 0.00 0.00 52 1016.1
20200711163303 83 326 2.0 2.0 0.00 0.00 0.00 53 1015.9
20200711162803 82 308 2.0 5.0 0.00 0.00 0.00 54 1016.1
20200711162301 82 31 0.0 5.0 0.00 0.00 0.00 56 1016.1
20200711161803 82 303 0.0 5.0 0.00 0.00 0.00 58 1016.2
20200711161300 82 252 2.0 5.0 0.00 0.00 0.00 58 1016.1
20200711160804 82 327 0.0 5.0 0.00 0.00 0.00 56 1016.3
20200711160300 82 313 1.0 5.0 0.00 0.00 0.00 55 1016.3
20200711155804 82 26 0.0 2.0 0.00 0.00 0.00 56 1016.3
20200711155301 81 283 0.0 2.0 0.00 0.00 0.00 56 1016.2
20200711154801 81 33 0.0 2.0 0.00 0.00 0.00 56 1016.3
20200711154300 80 15 0.0 2.0 0.00 0.00 0.00 55 1016.4
20200711153801 80 108 0.0 2.0 0.00 0.00 0.00 58 1016.5
20200711153300 79 325 0.0 2.0 0.00 0.00 0.00 61 1016.4
20200711152802 79 38 0.0 2.0 0.00 0.00 0.00 61 1016.4
20200711152259 78 343 0.0 2.0 0.00 0.00 0.00 63 1016.3
20200711151800 78 152 0.0 2.0 0.00 0.00 0.00 64 1016.2
20200711151301 77 23 0.0 0.0 0.00 0.00 0.00 66 1016.3
20200711150802 77 57 0.0 0.0 0.00 0.00 0.00 69 1016.3
20200711150259 76 66 0.0 0.0 0.00 0.00 0.00 68 1016.4
20200711145800 76 33 0.0 0.0 0.00 0.00 0.00 71 1016.3
20200711145258 76 58 0.0 0.0 0.00 0.00 0.00 72 1016.3
20200711144801 75 20 0.0 0.0 0.00 0.00 0.00 75 1016.2
20200711144302 74 60 0.0 0.0 0.00 0.00 0.00 77 1016.2
20200711143800 73 21 0.0 0.0 0.00 0.00 0.00 76 1016.2
20200711143258 72 31 0.0 0.0 0.00 0.00 0.00 78 1016.3
20200711142800 71 26 0.0 0.0 0.00 0.00 0.00 82 1016.3
20200711142257 70 58 0.0 0.0 0.00 0.00 0.00 85 1016.5
20200711141759 70 34 0.0 0.0 0.00 0.00 0.00 91 1016.2
20200711141259 69 11 0.0 0.0 0.00 0.00 0.00 94 1015.9
20200711140759 69 54 0.0 0.0 0.00 0.00 0.00 96 1016.1
20200711140259 69 349 0.0 0.0 0.00 0.00 0.00 98 1016.1
20200711135759 69 346 0.0 0.0 0.00 0.00 0.00 98 1015.9
20200711135257 68 18 0.0 0.0 0.00 0.00 0.00 98 1016.1
20200711134759 68 33 0.0 0.0 0.00 0.00 0.00 99 1016.1
20200711134257 68 34 0.0 0.0 0.00 0.00 0.00 99 1016.1
20200711133758 68 35 0.0 0.0 0.00 0.00 0.00 99 1016.1
20200711133257 67 57 0.0 0.0 0.00 0.00 0.00 99 1016.1
20200711132757 67 60 0.0 0.0 0.00 0.00 0.00 99 1016.1
20200711132257 67 48 0.0 0.0 0.00 0.00 0.00 99 1016.1
20200711131757 67 28 0.0 0.0 0.00 0.00 0.00 99 1015.8
20200711131258 67 353 0.0 0.0 0.00 0.00 0.00 99 1015.7
20200711130759 67 348 0.0 0.0 0.00 0.00 0.00 99 1015.7
20200711130257 67 317 0.0 0.0 0.00 0.00 0.00 99 1015.7
20200711125757 67 343 0.0 0.0 0.00 0.00 0.00 99 1015.8
20200711125256 67 13 0.0 0.0 0.00 0.00 0.00 99 1016.1
20200711124812 67 16 0.0 0.0 0.00 0.00 0.00 99 1016.1
20200711124256 67 29 0.0 0.0 0.00 0.00 0.00 99 1016.2
20200711123756 67 28 0.0 0.0 0.00 0.00 0.00 99 1016.2
20200711123255 67 28 0.0 0.0 0.00 0.00 0.00 99 1015.9
20200711122757 67 1 0.0 0.0 0.00 0.00 0.00 99 1015.8
20200711122258 67 19 0.0 0.0 0.00 0.00 0.00 99 1015.7
20200711121757 67 359 0.0 0.0 0.00 0.00 0.00 99 1015.7
20200711121254 67 15 0.0 0.0 0.00 0.00 0.00 99 1015.7
20200711120756 67 338 0.0 0.0 0.00 0.00 0.00 99 1015.7
20200711120256 67 8 0.0 0.0 0.00 0.00 0.00 99 1015.7
20200711115755 67 16 0.0 0.0 0.00 0.00 0.00 99 1015.6
20200711115256 67 15 0.0 0.0 0.00 0.00 0.00 99 1015.6
20200711114754 68 7 0.0 0.0 0.00 0.00 0.00 99 1015.6
20200711114255 68 4 0.0 0.0 0.00 0.00 0.00 99 1015.6
20200711113754 68 0 0.0 0.0 0.00 0.00 0.00 99 1015.6
20200711113255 68 343 0.0 0.0 0.00 0.00 0.00 99 1015.7
20200711112753 68 332 0.0 0.0 0.00 0.00 0.00 99 1015.6
20200711112254 68 324 0.0 0.0 0.00 0.00 0.00 98 1015.6
20200711111755 68 7 0.0 0.0 0.00 0.00 0.00 99 1015.5
20200711111254 68 307 0.0 0.0 0.00 0.00 0.00 97 1015.4
20200711110754 68 356 0.0 5.0 0.00 0.00 0.00 97 1015.4
20200711110254 68 9 1.0 5.0 0.00 0.00 0.00 97 1015.3
20200711105753 68 326 0.0 5.0 0.00 0.00 0.00 97 1015.3
20200711105253 68 337 2.0 5.0 0.00 0.00 0.00 97 1015.1
20200711104753 68 323 0.0 2.0 0.00 0.00 0.00 97 1015.1
20200711104249 68 345 1.0 5.0 0.00 0.00 0.00 97 1015.3
20200711103745 68 348 0.0 5.0 0.00 0.00 0.00 97 1015.3
20200711103241 68 7 0.0 2.0 0.00 0.00 0.00 97 1015.2
20200711102738 68 322 0.0 2.0 0.00 0.00 0.00 97 1015.2
20200711102231 68 332 0.0 2.0 0.00 0.00 0.00 96 1015.2
20200711101731 68 306 0.0 2.0 0.00 0.00 0.00 96 1015.2
20200711101231 68 4 0.0 2.0 0.00 0.00 0.00 96 1015.2
20200711100731 68 326 0.0 0.0 0.00 0.00 0.00 96 1015.2
20200711100233 69 16 0.0 0.0 0.00 0.00 0.00 96 1015.2
20200711095730 69 337 0.0 0.0 0.00 0.00 0.00 96 1015.3
20200711095224 69 353 0.0 0.0 0.00 0.00 0.00 96 1015.3
20200711094723 69 341 0.0 0.0 0.00 0.00 0.00 95 1015.3
20200711094219 69 23 0.0 0.0 0.00 0.00 0.00 95 1015.3
20200711093713 69 29 0.0 2.0 0.00 0.00 0.00 95 1015.3
20200711093208 69 334 0.0 2.0 0.00 0.00 0.00 95 1015.2
20200711092705 69 6 0.0 0.0 0.00 0.00 0.00 95 1015.3
20200711092203 69 356 0.0 2.0 0.00 0.00 0.00 95 1015.2
20200711091705 69 325 0.0 2.0 0.00 0.00 0.00 95 1015.3
20200711091209 69 354 0.0 0.0 0.00 0.00 0.00 94 1015.3
20200711090704 69 1 0.0 2.0 0.00 0.00 0.00 94 1015.3
20200711090202 69 358 0.0 5.0 0.00 0.00 0.00 94 1015.4
20200711085704 69 359 0.0 5.0 0.00 0.00 0.00 94 1015.2
20200711085205 69 343 0.0 5.0 0.00 0.00 0.00 94 1015.1
20200711084703 69 339 0.0 2.0 0.00 0.00 0.00 94 1015.2
20200711084203 69 23 0.0 2.0 0.00 0.00 0.00 93 1015.4
20200711083703 69 301 0.0 0.0 0.00 0.00 0.00 93 1015.4
20200711083308 70 354 0.0 0.0 0.00 0.00 0.00 93 1015.5
20200711082703 70 352 0.0 0.0 0.00 0.00 0.00 93 1015.5
20200711082203 70 323 0.0 0.0 0.00 0.00 0.00 93 1015.6
20200711081702 70 338 0.0 0.0 0.00 0.00 0.00 92 1015.7
20200711081202 70 327 0.0 0.0 0.00 0.00 0.00 92 1015.6
20200711080703 69 341 0.0 0.0 0.00 0.00 0.00 92 1015.6
20200711080203 69 0 0.0 0.0 0.00 0.00 0.00 93 1015.6
20200711075701 69 356 0.0 0.0 0.00 0.00 0.00 93 1015.5
20200711075205 69 352 0.0 0.0 0.00 0.00 0.00 93 1015.6
20200711074702 69 14 0.0 0.0 0.00 0.00 0.00 93 1015.7
20200711074203 69 16 0.0 0.0 0.00 0.00 0.00 93 1015.6
20200711073702 69 323 0.0 0.0 0.00 0.00 0.00 93 1015.7
20200711073202 70 13 0.0 0.0 0.00 0.00 0.00 93 1015.7
20200711072702 70 18 0.0 0.0 0.00 0.00 0.00 93 1015.7
20200711072200 70 18 0.0 0.0 0.00 0.00 0.00 91 1015.6
20200711071657 70 17 0.0 0.0 0.00 0.00 0.00 91 1015.6
20200711071154 70 10 0.0 0.0 0.00 0.00 0.00 91 1015.6
20200711070652 70 355 0.0 0.0 0.00 0.00 0.00 91 1015.6
20200711070150 70 10 0.0 0.0 0.00 0.00 0.00 91 1015.6
20200711065650 70 14 0.0 0.0 0.00 0.00 0.00 91 1015.6
20200711065150 70 353 0.0 0.0 0.00 0.00 0.00 91 1015.5
20200711064652 70 20 0.0 0.0 0.00 0.00 0.00 90 1015.6
20200711064152 70 21 0.0 0.0 0.00 0.00 0.00 90 1015.6
20200711063652 70 18 0.0 0.0 0.00 0.00 0.00 90 1015.5
20200711063149 70 12 0.0 0.0 0.00 0.00 0.00 90 1015.6
20200711062650 70 17 0.0 0.0 0.00 0.00 0.00 90 1015.6
20200711062151 70 18 0.0 0.0 0.00 0.00 0.00 90 1015.6
20200711061649 70 12 0.0 0.0 0.00 0.00 0.00 90 1015.6
20200711061151 70 15 0.0 0.0 0.00 0.00 0.00 89 1015.5
20200711060651 71 31 0.0 0.0 0.00 0.00 0.00 88 1015.4
20200711060150 71 22 0.0 0.0 0.00 0.00 0.00 88 1015.5
20200711055650 71 19 0.0 0.0 0.00 0.00 0.00 88 1015.5
20200711055149 71 21 0.0 0.0 0.00 0.00 0.00 88 1015.5
20200711054650 71 9 0.0 0.0 0.00 0.00 0.00 88 1015.4
20200711054150 71 346 0.0 0.0 0.00 0.00 0.00 88 1015.5
20200711053650 71 357 0.0 0.0 0.00 0.00 0.00 88 1015.5
20200711053149 71 6 0.0 0.0 0.00 0.00 0.00 87 1015.4
20200711052650 71 11 0.0 0.0 0.00 0.00 0.00 87 1015.5
20200711052149 71 296 0.0 0.0 0.00 0.00 0.00 87 1015.5
20200711051649 71 16 0.0 2.0 0.00 0.00 0.00 87 1015.4
20200711051147 71 325 0.0 2.0 0.00 0.00 0.00 87 1015.4
20200711050649 72 304 0.0 0.0 0.00 0.00 0.00 86 1015.5
20200711050148 72 320 0.0 2.0 0.00 0.00 0.00 86 1015.5
20200711045650 72 324 0.0 2.0 0.00 0.00 0.00 84 1015.5
20200711045146 72 54 0.0 2.0 0.00 0.00 0.00 84 1015.3
20200711044648 72 328 0.0 2.0 0.00 0.00 0.00 84 1015.3
20200711044148 73 339 1.0 2.0 0.00 0.00 0.00 83 1015.2
20200711043652 73 349 0.0 2.0 0.00 0.00 0.00 82 1015.2
20200711043148 73 329 0.0 2.0 0.00 0.00 0.00 82 1015.1
20200711042648 73 329 0.0 0.0 0.00 0.00 0.00 81 1015.1
20200711042151 73 41 0.0 0.0 0.00 0.00 0.00 81 1015.0
20200711041650 73 15 0.0 0.0 0.00 0.00 0.00 80 1015.0
20200711041147 74 344 0.0 2.0 0.00 0.00 0.00 80 1014.9
20200711040648 74 6 0.0 2.0 0.00 0.00 0.00 79 1014.8
20200711040149 74 328 0.0 2.0 0.00 0.00 0.00 79 1014.7
20200711035648 75 354 1.0 2.0 0.00 0.00 0.00 79 1014.7
20200711035147 75 319 1.0 2.0 0.00 0.00 0.00 79 1014.7
20200711034653 76 263 0.0 2.0 0.00 0.00 0.00 79 1014.7
20200711034146 76 303 0.0 2.0 0.00 0.00 0.00 78 1014.6
20200711033648 76 277 1.0 2.0 0.00 0.00 0.00 78 1014.6
20200711033145 76 348 0.0 0.0 0.00 0.00 0.00 77 1014.5
20200711032651 76 306 0.0 2.0 0.00 0.00 0.00 76 1014.5
20200711032145 76 306 0.0 2.0 0.00 0.00 0.00 76 1014.4
20200711031647 77 287 0.0 2.0 0.00 0.00 0.00 75 1014.4
20200711031146 77 338 0.0 2.0 0.00 0.00 0.00 75 1014.4
20200711030646 77 278 2.0 5.0 0.00 0.00 0.00 74 1014.4
20200711030147 77 349 0.0 5.0 0.00 0.00 0.00 74 1014.3
20200711025647 77 60 0.0 5.0 0.00 0.00 0.00 72 1014.3
20200711025145 77 273 1.0 5.0 0.00 0.00 0.00 72 1014.4
20200711024647 78 77 0.0 5.0 0.00 0.00 0.00 72 1014.4
20200711024144 78 246 1.0 5.0 0.00 0.00 0.00 71 1014.4
20200711023646 79 59 0.0 2.0 0.00 0.00 0.00 70 1014.4
20200711023145 80 277 1.0 8.0 0.00 0.00 0.00 68 1014.3
20200711022647 80 354 0.0 8.0 0.00 0.00 0.00 68 1014.4
20200711022144 81 293 1.0 5.0 0.00 0.00 0.00 67 1014.4
20200711021645 82 290 2.0 5.0 0.00 0.00 0.00 63 1014.4
20200711021144 83 25 0.0 5.0 0.00 0.00 0.00 60 1014.5
20200711020646 83 350 0.0 8.0 0.00 0.00 0.00 58 1014.4
20200711020145 83 31 0.0 8.0 0.00 0.00 0.00 57 1014.4
20200711015647 84 292 1.0 8.0 0.00 0.00 0.00 56 1014.4
20200711015151 84 347 0.0 8.0 0.00 0.00 0.00 55 1014.4
20200711014646 84 48 0.0 8.0 0.00 0.00 0.00 54 1014.3
20200711014144 85 243 3.0 8.0 0.00 0.00 0.00 52 1014.2
20200711013644 85 280 5.0 8.0 0.00 0.00 0.00 50 1014.2
20200711013142 85 331 1.0 8.0 0.00 0.00 0.00 51 1014.2
20200711012646 85 282 3.0 8.0 0.00 0.00 0.00 48 1014.2
20200711012142 86 268 1.0 8.0 0.00 0.00 0.00 47 1014.1
20200711011645 86 25 0.0 8.0 0.00 0.00 0.00 45 1014.1
20200711011142 86 296 3.0 8.0 0.00 0.00 0.00 44 1014.1
20200711010644 87 326 1.0 8.0 0.00 0.00 0.00 44 1014.1
20200711010142 87 231 3.0 8.0 0.00 0.00 0.00 46 1014.1
20200711005643 87 203 0.0 8.0 0.00 0.00 0.00 45 1014.2
20200711005142 87 292 2.0 5.0 0.00 0.00 0.00 44 1014.1
20200711004642 87 303 2.0 5.0 0.00 0.00 0.00 43 1014.1
20200711004143 87 150 0.0 10.0 0.00 0.00 0.00 43 1014.1
20200711003641 88 311 2.0 10.0 0.00 0.00 0.00 44 1014.2
20200711003141 88 276 1.0 8.0 0.00 0.00 0.00 44 1014.1
20200711002643 88 328 1.0 8.0 0.00 0.00 0.00 44 1014.1
20200711002143 88 354 2.0 8.0 0.00 0.00 0.00 43 1014.3
20200711001641 88 289 3.0 5.0 0.00 0.00 0.00 39 1014.3
20200711001143 88 215 3.0 8.0 0.00 0.00 0.00 38 1014.3
20200711000644 89 309 4.0 8.0 0.00 0.00 0.00 38 1014.4
20200711000143 89 245 2.0 5.0 0.00 0.00 0.00 35 1014.4
20200710235641 89 346 1.0 5.0 0.00 0.00 0.00 34 1014.3
20200710235141 89 282 1.0 10.0 0.00 0.00 0.00 32 1014.3
20200710234642 89 303 0.0 10.0 0.00 0.00 0.00 31 1014.4
20200710234140 89 304 1.0 5.0 0.00 0.00 0.00 28 1014.5